{"data":{"norad_id":39358,"epoch":"2026-09-20T05:03:39.375360Z","epoch_age_seconds":58559,"freshness":"FRESH","line1":"1 39358U 13057A   26263.21087240  .00001280  00000+0  12638-3 0  9990","line2":"2 39358  74.9732 176.6853 0015776 355.4219   4.6822 14.92789509700523","mean_motion":14.92789509,"eccentricity":0.0015776,"inclination_deg":74.9732,"raan_deg":176.6853,"arg_perigee_deg":355.4219,"mean_anomaly_deg":4.6822,"bstar":0.00012638,"rev_number":70052,"period_min":96.463700429181,"perigee_km":578.25063534872,"apogee_km":600.23411074656,"semimajor_km":6967.3793730476,"source":"CELESTRAK","updated_at":"2026-09-20T09:00:13.950987Z"}}